Flag for Sweden Weather past 2 weeks in Kiruna, Sweden

Now
28 °F

Overcast.


Feels Like: 17 °F
Forecast: 29 / 31 °F
Wind: 14 mph from South

Location: Kiruna Airport

Current Time: Mar 1, 2015 at 1:06:20 AM

Latest Report: Mar 1, 2015 at 12:20 AM


Visibility: N/A

Pressure: 29.24 "Hg

Humidity: 86%

Dew point: 25 °F

Location of KirunaLocation

Historic Weather in Kiruna — Graph

°F

Kiruna temperature yesterday

Maximum temperature yesterday: 30 °F (at 12:20 AM)
Minimum temperature yesterday: 27 °F (at 5:20 AM)
Average temperature yesterday: 28 °F

Past Weeks' High & Low Weather Summary

 TemperatureHumidityPressure
High37 °F (Feb 19, 3:20 PM)100% (Feb 19, 9:20 AM)30.33 "Hg (Feb 19, 9:20 AM)
Low-6 °F (Feb 15, 1:50 AM)54% (Feb 18, 12:20 PM)28.82 "Hg (Feb 21, 1:20 AM)
Average22 °F83%29.43 "Hg
* Reported Feb 13 11:20 PM — Feb 28 11:50 PM, Kiruna, Weather by CustomWeather, © 2015

Note: Actual official high and low records may vary slightly from our data, if they occured in-between our weather recording intervals... More about our weather records

Advertising

Kiruna weather history for previous 24 hours

 ConditionsComfort  
Time TempWeatherWind HumidityBarometerVisibility
11:50 PM
Sat, Feb 28
28 °FOvercast.15 mph86%29.24 "HgN/A
11:20 PM28 °FOvercast.22 mph86%29.24 "HgN/A
10:50 PM28 °FMostly cloudy.10 mph86%29.27 "HgN/A
10:20 PM28 °FOvercast.16 mph86%29.24 "HgN/A
9:50 PM28 °FOvercast.14 mph86%29.27 "HgN/A
9:20 PM28 °FMostly cloudy.8 mph86%29.27 "HgN/A
8:50 PM28 °FLow clouds.8 mph86%29.30 "HgN/A
8:20 PM27 °FLow clouds.10 mph93%29.30 "HgN/A
7:50 PM27 °FLow clouds.12 mph93%29.30 "HgN/A
7:20 PM27 °FLow clouds.20 mph93%29.30 "HgN/A
6:50 PM27 °FLow clouds.17 mph93%29.33 "HgN/A
6:20 PM27 °FLow clouds.17 mph93%29.33 "HgN/A
5:50 PM27 °FOvercast.13 mph93%29.36 "HgN/A
5:20 PM27 °FLow clouds.14 mph93%29.36 "HgN/A
4:50 PM27 °FPassing clouds.15 mph93%29.36 "HgN/A
4:20 PM27 °FScattered clouds.8 mph86%29.36 "HgN/A
3:50 PM28 °FScattered clouds.9 mph86%29.39 "HgN/A
3:20 PM28 °FPartly sunny.6 mph86%29.39 "HgN/A
2:50 PM28 °FPassing clouds.18 mph86%29.39 "HgN/A
2:20 PM28 °FPassing clouds.13 mph86%29.42 "HgN/A
1:50 PM28 °FPartly sunny.16 mph86%29.42 "Hg10 mi
1:20 PM28 °FSunny.17 mph86%29.42 "Hg10 mi
12:50 PM28 °FSunny.16 mph80%29.45 "Hg10 mi
12:20 PM27 °FSunny.17 mph86%29.45 "Hg10 mi
11:50 AM27 °FSunny.16 mph86%29.45 "Hg10 mi
11:20 AM27 °FPassing clouds.9 mph86%29.45 "HgN/A
10:50 AM27 °FPassing clouds.9 mph86%29.45 "HgN/A
10:20 AM27 °FSunny.15 mph86%29.45 "Hg10 mi
9:50 AM28 °FSunny.16 mph80%29.45 "Hg10 mi
9:20 AM27 °FSunny.10 mph86%29.45 "Hg10 mi
8:50 AM28 °FSunny.16 mph80%29.45 "Hg10 mi
8:20 AM27 °FSunny.24 mph86%29.45 "Hg10 mi
7:50 AM27 °FSunny.23 mph86%29.45 "Hg10 mi
7:20 AM27 °FSunny.20 mph86%29.45 "Hg10 mi
6:50 AM27 °FChilly.17 mph86%29.45 "HgN/A
6:20 AM27 °FChilly.24 mph86%29.42 "HgN/A
5:50 AM27 °FChilly.18 mph86%29.45 "HgN/A
5:20 AM27 °FChilly.21 mph86%29.42 "HgN/A
4:20 AM28 °FChilly.22 mph80%29.42 "HgN/A
3:50 AM28 °FChilly.26 mph80%29.42 "HgN/A
3:20 AM28 °FChilly.23 mph80%29.42 "HgN/A
2:50 AM28 °FChilly.25 mph80%29.42 "HgN/A
2:20 AM28 °FChilly.16 mph86%29.42 "HgN/A
1:50 AM30 °FPassing clouds.12 mph80%29.45 "HgN/A
1:20 AM30 °FPassing clouds.20 mph80%29.45 "HgN/A
Weather by CustomWeather, © 2015

See weather overviewHow to use our weather pages